FREGAT R/B (57601 NORAD) Tracking and Keplerian Element Data

This shows tracking and keplerian element data for the satellite.

Feedback or suggestion? Click here.




ElementValue
Catalog57601
NameFREGAT R/B
Epoch Orbit0
Epoch Day222.96594907
Epoch Year2023
RAAN342.6953
Inclination51.7305
Eccentricity0.001
Argument of Perigee91.5786
Mean Anonmoly0
Mean Motion16.0018015
Decay Rate-3.587E-05
L11 57601U 23118B 23222.96594907 -.00003587 11340-4 00000+0 0 9990
L22 57601 51.7305 342.6953 0010000 91.5786 0.0000 16.00180150 03



Live tracking and technical data element details for FREGAT R/B (NORAD 57601). FREGAT R/B can be tracked NOW for your location showing map with azimuth and elevation plus other details from your city location.







IsCatalogInMostPopularTable: catalog: 57601, numindb: 14
Update: records affected: 1



GetName: 57601 FREGAT R/B

Hit Count: updated at: Mon, 04 Dec 2023 02:42:34 GMT